sat.trackr.live / text

‹ back to catalog

STARLINK-33695

NORAD 63478 · 2025-070U

PAYLOAD ACTIVE UNKNOWN

§ Identity

Operator
Country
US
Launch date
2025-04-06
Launch site
AFETR
Launch vehicle
Mass (kg)
RCS (m²)

Purposes: comms

External: N2YO · Heavens-Above · Gunter

§ Orbital elements

Epoch: 2026-05-25T03:40:07.186944Z

Period
94.27 min
Inclination
43.0015°
Eccentricity
0.0001609
Mean motion
15.27554832 rev/d
Perigee alt
482.0 km
Apogee alt
484.2 km
Semi-major
6,861.3 km
B*
-1.4670e-4
RAAN
184.2199°
Arg perigee
278.9214°
Mean anomaly
81.1456°
Rev number
6,471

§ Raw data

STARLINK-336951 63478U 25070U   26145.15286096 -.00004294  00000+0 -14670-3 0  99982 63478  43.0015 184.2199 0001609 278.9214  81.1456 15.27554832 64711

JSON: /api/v1/satellites/63478 · /tle

For live sub-satellite position, see the globe view (requires WebGL).

§ Visibility from observer

Set your observer location to see the next 7 days of passes ≥ 10°. The values pass through the URL so the page stays shareable.

No JS? Fill the form by hand. The geolocation button needs JavaScript.